Time,TemperatureF,DewpointF,PressureIn,WindDirection,WindDirectionDegrees,WindSpeedMPH,WindSpeedGustMPH,Humidity,HourlyPrecipIn,Conditions,Clouds,dailyrainin,SoftwareType,DateUTC
2013-10-01 00:01:00,59.5,53.7,29.95,South,180,0.0,0.0,81,0.00,SCT,,0.00,WeatherDisplay:10.37,2013-10-01 04:01:00,
2013-10-01 00:02:00,59.5,53.7,29.95,WSW,248,0.0,0.0,81,0.00,SCT,,0.00,WeatherDisplay:10.37,2013-10-01 04:02:00,
2013-10-01 00:04:00,59.4,53.5,29.95,WSW,248,0.0,0.0,81,0.00,SCT,,0.00,WeatherDisplay:10.37,2013-10-01 04:04:00,
2013-10-01 00:09:00,59.5,53.7,29.94,WSW,248,0.0,0.0,81,0.00,SCT,,0.00,WeatherDisplay:10.37,2013-10-01 04:09:00,
2013-10-01 00:14:00,59.4,53.5,29.94,South,180,0.0,0.0,81,0.00,SCT,,0.00,WeatherDisplay:10.37,2013-10-01 04:14:00,
2013-10-01 00:19:00,59.4,53.5,29.94,West,270,0.0,0.0,81,0.00,FEW,,0.00,WeatherDisplay:10.37,2013-10-01 04:19:00,
2013-10-01 00:24:00,59.2,53.7,29.94,SW,225,0.0,0.0,82,0.00,FEW,,0.00,WeatherDisplay:10.37,2013-10-01 04:24:00,
2013-10-01 00:29:00,59.2,53.7,29.93,SW,225,1.2,1.2,82,0.00,FEW,,0.00,WeatherDisplay:10.37,2013-10-01 04:29:00,
2013-10-01 00:34:00,59.2,53.7,29.93,SW,225,0.0,0.1,82,0.00,FEW,,0.00,WeatherDisplay:10.37,2013-10-01 04:34:00,
2013-10-01 00:39:00,59.2,53.7,29.93,SW,225,0.0,0.0,82,0.00,FEW,,0.00,WeatherDisplay:10.37,2013-10-01 04:39:00,
2013-10-01 00:44:00,59.0,53.5,29.93,SW,225,0.0,0.0,82,0.00,FEW,,0.00,WeatherDisplay:10.37,2013-10-01 04:44:00,
2013-10-01 00:49:00,59.2,53.7,29.94,SW,225,0.0,0.0,82,0.00,FEW,,0.00,WeatherDisplay:10.37,2013-10-01 04:49:00,
2013-10-01 00:54:00,58.8,53.3,29.94,South,180,1.2,1.2,82,0.00,FEW,,0.00,WeatherDisplay:10.37,2013-10-01 04:54:00,
2013-10-01 00:59:00,58.8,53.3,29.94,SW,225,1.2,1.2,82,0.00,FEW,,0.00,WeatherDisplay:10.37,2013-10-01 04:59:00,
2013-10-01 01:04:00,58.8,53.3,29.94,SW,225,0.0,0.4,82,0.00,FEW,,0.00,WeatherDisplay:10.37,2013-10-01 05:04:00,
2013-10-01 01:09:00,58.6,53.2,29.94,WSW,248,0.0,0.0,82,0.00,FEW,,0.00,WeatherDisplay:10.37,2013-10-01 05:09:00,
2013-10-01 01:14:00,58.8,53.3,29.94,SW,225,0.0,0.0,82,0.00,FEW,,0.00,WeatherDisplay:10.37,2013-10-01 05:14:00,
2013-10-01 01:19:00,58.5,53.0,29.94,ESE,112,0.0,0.0,82,0.00,FEW,,0.00,WeatherDisplay:10.37,2013-10-01 05:19:00,
2013-10-01 01:24:00,58.5,53.3,29.94,SW,225,0.0,0.0,83,0.00,FEW,,0.00,WeatherDisplay:10.37,2013-10-01 05:24:00,
2013-10-01 01:29:00,58.3,53.1,29.94,SW,225,1.2,1.2,83,0.00,FEW,,0.00,WeatherDisplay:10.37,2013-10-01 05:29:00,
2013-10-01 01:34:00,58.3,53.1,29.94,SSW,202,2.3,2.3,83,0.00,FEW,,0.00,WeatherDisplay:10.37,2013-10-01 05:34:00,
2013-10-01 01:39:00,58.5,53.3,29.94,WSW,248,0.0,0.4,83,0.00,FEW,,0.00,WeatherDisplay:10.37,2013-10-01 05:39:00,
2013-10-01 01:44:00,58.3,53.1,29.94,WSW,248,0.0,0.1,83,0.00,FEW,,0.00,WeatherDisplay:10.37,2013-10-01 05:44:00,
2013-10-01 01:49:00,58.5,53.3,29.93,WSW,248,0.0,0.0,83,0.00,FEW,,0.00,WeatherDisplay:10.37,2013-10-01 05:49:00,
2013-10-01 01:54:00,58.5,53.3,29.93,WSW,248,1.2,1.2,83,0.00,FEW,,0.00,WeatherDisplay:10.37,2013-10-01 05:54:00,
2013-10-01 01:59:00,58.3,53.1,29.93,WSW,248,0.0,0.1,83,0.00,FEW,,0.00,WeatherDisplay:10.37,2013-10-01 05:59:00,
2013-10-01 02:04:00,58.5,53.3,29.93,WSW,248,0.0,0.1,83,0.00,FEW,,0.00,WeatherDisplay:10.37,2013-10-01 06:04:00,
2013-10-01 02:09:00,58.5,53.3,29.94,WSW,248,0.0,0.0,83,0.00,FEW,,0.00,WeatherDisplay:10.37,2013-10-01 06:09:00,
2013-10-01 02:14:00,58.3,53.1,29.94,WSW,248,0.0,0.0,83,0.00,FEW,,0.00,WeatherDisplay:10.37,2013-10-01 06:14:00,
2013-10-01 02:19:00,58.1,53.0,29.94,West,270,0.0,0.0,83,0.00,FEW,,0.00,WeatherDisplay:10.37,2013-10-01 06:19:00,
2013-10-01 02:24:00,58.1,53.0,29.94,WSW,248,0.0,0.0,83,0.00,FEW,,0.00,WeatherDisplay:10.37,2013-10-01 06:24:00,
2013-10-01 02:29:00,57.9,52.8,29.93,SW,225,0.0,0.0,83,0.00,FEW,,0.00,WeatherDisplay:10.37,2013-10-01 06:29:00,
2013-10-01 02:34:00,58.1,53.0,29.93,WSW,248,0.0,0.0,83,0.00,FEW,,0.00,WeatherDisplay:10.37,2013-10-01 06:34:00,
2013-10-01 02:39:00,57.7,52.6,29.93,SW,225,0.0,0.0,83,0.00,FEW,,0.00,WeatherDisplay:10.37,2013-10-01 06:39:00,
2013-10-01 02:44:00,57.7,52.6,29.93,SW,225,0.0,0.0,83,0.00,FEW,,0.00,WeatherDisplay:10.37,2013-10-01 06:44:00,
2013-10-01 02:49:00,57.6,52.4,29.93,SW,225,0.0,0.0,83,0.00,FEW,,0.00,WeatherDisplay:10.37,2013-10-01 06:49:00,
2013-10-01 02:54:00,57.6,52.4,29.93,SSW,202,0.0,0.0,83,0.00,FEW,,0.00,WeatherDisplay:10.37,2013-10-01 06:54:00,
2013-10-01 02:59:00,57.6,52.4,29.93,SW,225,0.0,0.0,83,0.00,FEW,,0.00,WeatherDisplay:10.37,2013-10-01 06:59:00,
2013-10-01 03:04:00,57.4,52.3,29.93,SW,225,0.0,0.0,83,0.00,FEW,,0.00,WeatherDisplay:10.37,2013-10-01 07:04:00,
2013-10-01 03:09:00,57.4,52.3,29.92,SW,225,0.0,0.0,83,0.00,FEW,,0.00,WeatherDisplay:10.37,2013-10-01 07:09:00,
2013-10-01 03:14:00,57.2,52.1,29.92,SW,225,0.0,0.0,83,0.00,FEW,,0.00,WeatherDisplay:10.37,2013-10-01 07:14:00,
2013-10-01 03:19:00,57.2,52.1,29.92,SW,225,0.0,0.0,83,0.00,FEW,,0.00,WeatherDisplay:10.37,2013-10-01 07:19:00,
2013-10-01 03:24:00,57.2,52.1,29.92,SW,225,0.0,0.0,83,0.00,FEW,,0.00,WeatherDisplay:10.37,2013-10-01 07:24:00,
2013-10-01 03:29:00,57.2,52.1,29.92,SW,225,0.0,0.0,83,0.00,FEW,,0.00,WeatherDisplay:10.37,2013-10-01 07:29:00,
2013-10-01 03:34:00,57.0,51.9,29.92,SW,225,0.0,0.0,83,0.00,FEW,,0.00,WeatherDisplay:10.37,2013-10-01 07:34:00,
2013-10-01 03:40:00,57.0,51.9,29.92,South,180,0.0,0.0,83,0.00,FEW,,0.00,WeatherDisplay:10.37,2013-10-01 07:40:00,
2013-10-01 03:45:00,56.8,51.7,29.92,SW,225,0.0,0.0,83,0.00,FEW,,0.00,WeatherDisplay:10.37,2013-10-01 07:45:00,
2013-10-01 03:50:00,57.0,51.9,29.92,SSW,202,0.0,0.0,83,0.00,FEW,,0.00,WeatherDisplay:10.37,2013-10-01 07:50:00,
2013-10-01 03:55:00,56.8,51.7,29.92,ENE,68,0.0,0.0,83,0.00,FEW,,0.00,WeatherDisplay:10.37,2013-10-01 07:55:00,
2013-10-01 04:00:00,56.7,51.6,29.92,WSW,248,0.0,0.0,83,0.00,FEW,,0.00,WeatherDisplay:10.37,2013-10-01 08:00:00,
2013-10-01 04:05:00,56.5,51.4,29.92,SSW,202,0.0,0.0,83,0.00,FEW,,0.00,WeatherDisplay:10.37,2013-10-01 08:05:00,
2013-10-01 04:11:00,56.7,51.6,29.92,SSW,202,0.0,0.0,83,0.00,FEW,,0.00,WeatherDisplay:10.37,2013-10-01 08:11:00,
2013-10-01 04:16:00,56.5,51.4,29.92,West,270,0.0,0.0,83,0.00,FEW,,0.00,WeatherDisplay:10.37,2013-10-01 08:16:00,
2013-10-01 04:21:00,56.3,51.2,29.92,West,270,0.0,0.0,83,0.00,FEW,,0.00,WeatherDisplay:10.37,2013-10-01 08:21:00,
2013-10-01 04:26:00,56.1,51.4,29.92,West,270,0.0,0.0,84,0.00,FEW,,0.00,WeatherDisplay:10.37,2013-10-01 08:26:00,
2013-10-01 04:31:00,56.3,51.5,29.92,West,270,0.0,0.0,84,0.00,FEW,,0.00,WeatherDisplay:10.37,2013-10-01 08:31:00,
2013-10-01 04:36:00,55.9,51.2,29.92,SSW,202,0.0,0.0,84,0.00,FEW,,0.00,WeatherDisplay:10.37,2013-10-01 08:36:00,
2013-10-01 04:41:00,55.9,51.2,29.92,West,270,0.0,0.0,84,0.00,FEW,,0.00,WeatherDisplay:10.37,2013-10-01 08:41:00,
2013-10-01 04:46:00,55.8,51.0,29.93,West,270,0.0,0.0,84,0.00,FEW,,0.00,WeatherDisplay:10.37,2013-10-01 08:46:00,
2013-10-01 04:52:00,55.8,51.0,29.93,West,270,0.0,0.0,84,0.00,FEW,,0.00,WeatherDisplay:10.37,2013-10-01 08:52:00,
2013-10-01 04:57:00,55.8,51.0,29.93,NNW,338,0.0,0.0,84,0.00,FEW,,0.00,WeatherDisplay:10.37,2013-10-01 08:57:00,
2013-10-01 05:02:00,55.6,50.8,29.93,WSW,248,0.0,0.0,84,0.00,FEW,,0.00,WeatherDisplay:10.37,2013-10-01 09:02:00,
2013-10-01 05:07:00,55.6,50.8,29.93,WSW,248,0.0,0.0,84,0.00,FEW,,0.00,WeatherDisplay:10.37,2013-10-01 09:07:00,
2013-10-01 05:12:00,55.6,50.8,29.93,SE,135,0.0,0.0,84,0.00,FEW,,0.00,WeatherDisplay:10.37,2013-10-01 09:12:00,
2013-10-01 05:17:00,55.6,51.1,29.93,South,180,0.0,0.0,85,0.00,FEW,,0.00,WeatherDisplay:10.37,2013-10-01 09:17:00,
2013-10-01 05:23:00,55.4,51.0,29.93,West,270,0.0,0.0,85,0.00,FEW,,0.00,WeatherDisplay:10.37,2013-10-01 09:23:00,
2013-10-01 05:27:00,55.2,50.8,29.93,WNW,292,0.0,0.0,85,0.00,FEW,,0.00,WeatherDisplay:10.37,2013-10-01 09:27:00,
2013-10-01 05:33:00,55.2,50.8,29.93,SW,225,0.0,0.0,85,0.00,FEW,,0.00,WeatherDisplay:10.37,2013-10-01 09:33:00,
2013-10-01 05:38:00,55.0,50.6,29.93,WSW,248,0.0,0.0,85,0.00,FEW,,0.00,WeatherDisplay:10.37,2013-10-01 09:38:00,
2013-10-01 05:44:00,55.2,50.8,29.93,WSW,248,0.0,0.0,85,0.00,FEW,,0.00,WeatherDisplay:10.37,2013-10-01 09:44:00,
2013-10-01 05:49:00,55.0,50.6,29.94,South,180,0.0,0.0,85,0.00,FEW,,0.00,WeatherDisplay:10.37,2013-10-01 09:49:00,
2013-10-01 05:54:00,54.9,50.4,29.94,SW,225,0.0,0.0,85,0.00,FEW,,0.00,WeatherDisplay:10.37,2013-10-01 09:54:00,
2013-10-01 05:59:00,55.0,50.6,29.94,SW,225,0.0,0.0,85,0.00,FEW,,0.00,WeatherDisplay:10.37,2013-10-01 09:59:00,
2013-10-01 06:04:00,54.9,50.4,29.94,WSW,248,0.0,0.0,85,0.00,FEW,,0.00,WeatherDisplay:10.37,2013-10-01 10:04:00,
2013-10-01 06:09:00,54.9,50.4,29.94,WSW,248,0.0,0.0,85,0.00,FEW,,0.00,WeatherDisplay:10.37,2013-10-01 10:09:00,
2013-10-01 06:15:00,55.0,50.6,29.94,SW,225,0.0,0.0,85,0.00,FEW,,0.00,WeatherDisplay:10.37,2013-10-01 10:15:00,
2013-10-01 06:20:00,55.2,50.8,29.94,SW,225,0.0,0.0,85,0.00,FEW,,0.00,WeatherDisplay:10.37,2013-10-01 10:20:00,
2013-10-01 06:25:00,55.2,50.8,29.94,SSW,202,0.0,0.0,85,0.00,FEW,,0.00,WeatherDisplay:10.37,2013-10-01 10:25:00,
2013-10-01 06:30:00,55.0,50.6,29.94,South,180,0.0,0.0,85,0.00,FEW,,0.00,WeatherDisplay:10.37,2013-10-01 10:30:00,
2013-10-01 06:36:00,55.0,50.6,29.94,SW,225,0.0,0.0,85,0.00,FEW,,0.00,WeatherDisplay:10.37,2013-10-01 10:36:00,
2013-10-01 06:41:00,55.0,50.6,29.94,SW,225,0.0,0.0,85,0.00,FEW,,0.00,WeatherDisplay:10.37,2013-10-01 10:41:00,
2013-10-01 06:46:00,55.0,50.6,29.94,WSW,248,0.0,0.0,85,0.00,FEW,,0.00,WeatherDisplay:10.37,2013-10-01 10:46:00,
2013-10-01 06:51:00,54.9,50.4,29.94,WSW,248,0.0,0.0,85,0.00,FEW,,0.00,WeatherDisplay:10.37,2013-10-01 10:51:00,
2013-10-01 06:56:00,54.9,50.4,29.94,East,90,0.0,0.0,85,0.00,FEW,,0.00,WeatherDisplay:10.37,2013-10-01 10:56:00,
2013-10-01 07:01:00,54.9,50.4,29.94,South,180,0.0,0.0,85,0.00,FEW,,0.00,WeatherDisplay:10.37,2013-10-01 11:01:00,
2013-10-01 07:07:00,54.9,50.4,29.94,South,180,0.0,0.0,85,0.00,FEW,,0.00,WeatherDisplay:10.37,2013-10-01 11:07:00,
2013-10-01 07:12:00,54.9,50.4,29.94,South,180,0.0,0.0,85,0.00,FEW,,0.00,WeatherDisplay:10.37,2013-10-01 11:12:00,
2013-10-01 07:17:00,54.9,50.4,29.94,SW,225,0.0,0.0,85,0.00,FEW,,0.00,WeatherDisplay:10.37,2013-10-01 11:17:00,
2013-10-01 07:23:00,55.0,50.6,29.94,West,270,0.0,0.0,85,0.00,FEW,,0.00,WeatherDisplay:10.37,2013-10-01 11:23:00,
2013-10-01 07:28:00,55.0,50.6,29.94,SW,225,0.0,0.0,85,0.00,FEW,,0.00,WeatherDisplay:10.37,2013-10-01 11:28:00,
2013-10-01 07:33:00,55.0,50.9,29.94,WSW,248,0.0,0.0,86,0.00,FEW,,0.00,WeatherDisplay:10.37,2013-10-01 11:33:00,
2013-10-01 07:38:00,55.2,51.1,29.94,NNE,22,0.0,0.0,86,0.00,FEW,,0.00,WeatherDisplay:10.37,2013-10-01 11:38:00,
2013-10-01 07:43:00,55.6,51.5,29.94,SSW,202,0.0,0.0,86,0.00,FEW,,0.00,WeatherDisplay:10.37,2013-10-01 11:43:00,
2013-10-01 07:48:00,55.8,51.3,29.95,South,180,0.0,0.0,85,0.00,FEW,,0.00,WeatherDisplay:10.37,2013-10-01 11:48:00,
2013-10-01 07:53:00,56.3,52.2,29.95,SSW,202,0.0,0.0,86,0.00,FEW,,0.00,WeatherDisplay:10.37,2013-10-01 11:53:00,
2013-10-01 07:58:00,56.5,52.0,29.95,South,180,0.0,0.0,85,0.00,FEW,,0.00,WeatherDisplay:10.37,2013-10-01 11:58:00,
2013-10-01 08:04:00,56.7,52.2,29.95,SSW,202,0.0,0.0,85,0.00,FEW,,0.00,WeatherDisplay:10.37,2013-10-01 12:04:00,
2013-10-01 08:09:00,57.2,52.7,29.95,West,270,0.0,0.0,85,0.00,FEW,,0.00,WeatherDisplay:10.37,2013-10-01 12:09:00,
2013-10-01 08:14:00,57.6,52.8,29.95,SW,225,0.0,0.1,84,0.00,FEW,,0.00,WeatherDisplay:10.37,2013-10-01 12:14:00,
2013-10-01 08:19:00,57.9,53.1,29.95,West,270,0.0,0.3,84,0.00,FEW,,0.00,WeatherDisplay:10.37,2013-10-01 12:19:00,
2013-10-01 08:24:00,58.1,53.0,29.95,SSW,202,2.3,2.3,83,0.00,FEW,,0.00,WeatherDisplay:10.37,2013-10-01 12:24:00,
2013-10-01 08:29:00,58.6,53.5,29.95,SW,225,2.3,2.3,83,0.00,FEW,,0.00,WeatherDisplay:10.37,2013-10-01 12:29:00,
2013-10-01 08:34:00,58.8,53.7,29.95,WSW,248,0.0,0.9,83,0.00,FEW,,0.00,WeatherDisplay:10.37,2013-10-01 12:34:00,
2013-10-01 08:39:00,59.5,54.0,29.95,SSW,202,2.3,2.3,82,0.00,FEW,,0.00,WeatherDisplay:10.37,2013-10-01 12:39:00,
2013-10-01 08:45:00,59.9,54.4,29.95,South,180,0.0,0.4,82,0.00,FEW,,0.00,WeatherDisplay:10.37,2013-10-01 12:45:00,
2013-10-01 08:50:00,60.3,54.4,29.95,SSE,158,3.5,3.5,81,0.00,FEW,,0.00,WeatherDisplay:10.37,2013-10-01 12:50:00,
2013-10-01 08:55:00,61.0,55.1,29.95,SE,135,1.5,1.5,81,0.00,FEW,,0.00,WeatherDisplay:10.37,2013-10-01 12:55:00,
2013-10-01 09:00:00,61.5,55.6,29.95,SSW,202,2.3,2.3,81,0.00,FEW,,0.00,WeatherDisplay:10.37,2013-10-01 13:00:00,
2013-10-01 09:05:00,62.1,55.5,29.95,South,180,3.5,3.5,79,0.00,FEW,,0.00,WeatherDisplay:10.37,2013-10-01 13:05:00,
2013-10-01 09:11:00,62.2,55.6,29.95,NW,315,0.0,1.0,79,0.00,FEW,,0.00,WeatherDisplay:10.37,2013-10-01 13:11:00,
2013-10-01 09:16:00,62.8,55.8,29.95,SSW,202,1.5,1.5,78,0.00,FEW,,0.00,WeatherDisplay:10.37,2013-10-01 13:16:00,
2013-10-01 09:21:00,63.1,56.2,29.95,ENE,68,0.0,0.4,78,0.00,FEW,,0.00,WeatherDisplay:10.37,2013-10-01 13:21:00,
2013-10-01 09:27:00,63.7,56.3,29.95,SE,135,0.0,0.0,77,0.00,FEW,,0.00,WeatherDisplay:10.37,2013-10-01 13:27:00,
2013-10-01 09:32:00,64.0,56.3,29.95,SE,135,0.0,0.0,76,0.00,FEW,,0.00,WeatherDisplay:10.37,2013-10-01 13:32:00,
2013-10-01 09:37:00,64.6,56.8,29.95,ESE,112,0.0,0.0,76,0.00,FEW,,0.00,WeatherDisplay:10.37,2013-10-01 13:37:00,
2013-10-01 09:42:00,64.6,56.8,29.95,NNW,338,3.5,3.5,76,0.00,FEW,,0.00,WeatherDisplay:10.37,2013-10-01 13:42:00,
2013-10-01 09:47:00,64.9,57.2,29.94,NE,45,0.0,0.8,76,0.00,FEW,,0.00,WeatherDisplay:10.37,2013-10-01 13:47:00,
2013-10-01 09:52:00,65.1,57.0,29.94,NE,45,2.3,2.3,75,0.00,FEW,,0.00,WeatherDisplay:10.37,2013-10-01 13:52:00,
2013-10-01 09:57:00,65.1,57.0,29.94,West,270,1.2,1.2,75,0.00,FEW,,0.00,WeatherDisplay:10.37,2013-10-01 13:57:00,
2013-10-01 10:02:00,65.1,57.0,29.94,ESE,112,1.2,1.2,75,0.00,FEW,,0.00,WeatherDisplay:10.37,2013-10-01 14:02:00,
2013-10-01 10:07:00,65.7,57.5,29.94,NW,315,0.0,0.4,75,0.00,FEW,,0.00,WeatherDisplay:10.37,2013-10-01 14:07:00,
2013-10-01 10:12:00,65.8,57.7,29.94,SE,135,0.0,0.5,75,0.00,FEW,,0.00,WeatherDisplay:10.37,2013-10-01 14:12:00,
2013-10-01 10:17:00,66.4,57.8,29.94,SE,135,0.0,0.4,74,0.00,FEW,,0.00,WeatherDisplay:10.37,2013-10-01 14:17:00,
2013-10-01 10:22:00,67.1,58.2,29.94,SSE,158,2.3,2.3,73,0.00,FEW,,0.00,WeatherDisplay:10.37,2013-10-01 14:22:00,
2013-10-01 10:27:00,67.3,58.3,29.94,SE,135,1.2,1.2,73,0.00,FEW,,0.00,WeatherDisplay:10.37,2013-10-01 14:27:00,
2013-10-01 10:32:00,67.8,58.8,29.94,NE,45,2.3,2.3,73,0.00,FEW,,0.00,WeatherDisplay:10.37,2013-10-01 14:32:00,
2013-10-01 10:37:00,67.8,58.5,29.94,WNW,292,0.0,0.6,72,0.00,FEW,,0.00,WeatherDisplay:10.37,2013-10-01 14:37:00,
2013-10-01 10:42:00,68.0,58.6,29.94,North,0,2.3,2.3,72,0.00,FEW,,0.00,WeatherDisplay:10.37,2013-10-01 14:42:00,
2013-10-01 10:48:00,68.2,58.4,29.94,NNW,338,1.6,1.6,71,0.00,FEW,,0.00,WeatherDisplay:10.37,2013-10-01 14:48:00,
2013-10-01 10:53:00,68.7,58.5,29.94,ENE,68,1.2,1.2,70,0.00,FEW,,0.00,WeatherDisplay:10.37,2013-10-01 14:53:00,
2013-10-01 10:58:00,69.4,58.8,29.94,North,0,3.7,3.7,69,0.00,FEW,,0.00,WeatherDisplay:10.37,2013-10-01 14:58:00,
2013-10-01 11:03:00,70.0,58.1,29.94,North,0,3.9,3.9,66,0.00,FEW,,0.00,WeatherDisplay:10.37,2013-10-01 15:03:00,
2013-10-01 11:08:00,70.7,59.2,29.93,WNW,292,0.0,1.6,67,0.00,FEW,,0.00,WeatherDisplay:10.37,2013-10-01 15:08:00,
2013-10-01 11:13:00,71.1,59.1,29.93,NW,315,0.0,0.9,66,0.00,FEW,,0.00,WeatherDisplay:10.37,2013-10-01 15:13:00,
2013-10-01 11:18:00,71.4,59.9,29.93,North,0,0.0,0.3,67,0.00,FEW,,0.00,WeatherDisplay:10.37,2013-10-01 15:18:00,
2013-10-01 11:23:00,71.8,58.1,29.93,NNE,22,3.3,3.3,62,0.00,FEW,,0.00,WeatherDisplay:10.37,2013-10-01 15:23:00,
2013-10-01 11:28:00,72.3,57.7,29.93,NNE,22,2.3,2.3,60,0.00,FEW,,0.00,WeatherDisplay:10.37,2013-10-01 15:28:00,
2013-10-01 11:33:00,72.5,58.7,29.93,West,270,2.3,2.3,62,0.00,FEW,,0.00,WeatherDisplay:10.37,2013-10-01 15:33:00,
2013-10-01 11:38:00,73.0,58.8,29.93,NE,45,3.5,3.5,61,0.00,FEW,,0.00,WeatherDisplay:10.37,2013-10-01 15:38:00,
2013-10-01 11:43:00,73.6,57.4,29.93,NNE,22,3.5,3.5,57,0.00,FEW,,0.00,WeatherDisplay:10.37,2013-10-01 15:43:00,
2013-10-01 11:48:00,73.8,59.0,29.92,NW,315,1.2,1.9,60,0.00,FEW,,0.00,WeatherDisplay:10.37,2013-10-01 15:48:00,
2013-10-01 11:53:00,73.9,57.7,29.92,NNW,338,3.5,3.5,57,0.00,FEW,,0.00,WeatherDisplay:10.37,2013-10-01 15:53:00,
2013-10-01 11:58:00,73.8,58.1,29.92,WNW,292,2.3,2.3,58,0.00,FEW,,0.00,WeatherDisplay:10.37,2013-10-01 15:58:00,
2013-10-01 12:03:00,74.3,59.0,29.92,South,180,1.2,1.2,59,0.00,FEW,,0.00,WeatherDisplay:10.37,2013-10-01 16:03:00,
2013-10-01 12:08:00,74.5,58.2,29.91,South,180,1.2,1.2,57,0.00,FEW,,0.00,WeatherDisplay:10.37,2013-10-01 16:08:00,
2013-10-01 12:13:00,74.5,58.7,29.91,NNW,338,3.7,3.7,58,0.00,FEW,,0.00,WeatherDisplay:10.37,2013-10-01 16:13:00,
2013-10-01 12:18:00,74.5,58.2,29.91,WNW,292,2.3,2.3,57,0.00,FEW,,0.00,WeatherDisplay:10.37,2013-10-01 16:18:00,
2013-10-01 12:24:00,74.5,57.8,29.91,NW,315,1.2,1.5,56,0.00,FEW,,0.00,WeatherDisplay:10.37,2013-10-01 16:24:00,
2013-10-01 12:29:00,74.5,57.3,29.90,NNE,22,2.2,2.2,55,0.00,FEW,,0.00,WeatherDisplay:10.37,2013-10-01 16:29:00,
2013-10-01 12:31:00,74.5,58.2,29.90,WNW,292,2.5,2.5,57,0.00,FEW,,0.00,WeatherDisplay:10.37,2013-10-01 16:31:00,
2013-10-01 12:36:00,74.8,58.1,29.90,WSW,248,1.2,1.2,56,0.00,FEW,,0.00,WeatherDisplay:10.37,2013-10-01 16:36:00,
2013-10-01 12:41:00,75.0,58.3,29.90,WNW,292,3.5,3.5,56,0.00,FEW,,0.00,WeatherDisplay:10.37,2013-10-01 16:41:00,
2013-10-01 12:46:00,75.2,58.9,29.90,NW,315,2.3,2.3,57,0.00,FEW,,0.00,WeatherDisplay:10.37,2013-10-01 16:46:00,
2013-10-01 12:52:00,75.7,58.9,29.90,WSW,248,4.6,4.6,56,0.00,FEW,,0.00,WeatherDisplay:10.37,2013-10-01 16:52:00,
2013-10-01 12:57:00,76.1,58.8,29.90,SSE,158,2.5,2.5,55,0.00,FEW,,0.00,WeatherDisplay:10.37,2013-10-01 16:57:00,
2013-10-01 13:02:00,76.1,57.7,29.90,NNW,338,3.5,3.5,53,0.00,FEW,,0.00,WeatherDisplay:10.37,2013-10-01 17:02:00,
2013-10-01 13:07:00,75.9,58.6,29.89,SSE,158,4.6,4.6,55,0.00,FEW,,0.00,WeatherDisplay:10.37,2013-10-01 17:07:00,
2013-10-01 13:12:00,76.6,58.2,29.89,NW,315,3.5,3.5,53,0.00,FEW,,0.00,WeatherDisplay:10.37,2013-10-01 17:12:00,
2013-10-01 13:17:00,76.1,57.2,29.89,NNE,22,3.9,3.9,52,0.00,FEW,,0.00,WeatherDisplay:10.37,2013-10-01 17:17:00,
2013-10-01 13:22:00,75.4,57.1,29.89,NW,315,2.3,2.3,53,0.00,FEW,,0.00,WeatherDisplay:10.37,2013-10-01 17:22:00,
2013-10-01 13:28:00,75.2,56.4,29.88,NW,315,3.5,3.5,52,0.00,FEW,,0.00,WeatherDisplay:10.37,2013-10-01 17:28:00,
2013-10-01 13:33:00,75.7,57.9,29.88,WSW,248,3.5,3.5,54,0.00,FEW,,0.00,WeatherDisplay:10.37,2013-10-01 17:33:00,
2013-10-01 13:38:00,75.9,57.6,29.88,ENE,68,3.5,3.5,53,0.00,FEW,,0.00,WeatherDisplay:10.37,2013-10-01 17:38:00,
2013-10-01 13:43:00,75.7,57.9,29.88,SW,225,1.3,2.0,54,0.00,FEW,,0.00,WeatherDisplay:10.37,2013-10-01 17:43:00,
2013-10-01 13:49:00,76.1,57.7,29.87,WSW,248,3.5,3.5,53,0.00,FEW,,0.00,WeatherDisplay:10.37,2013-10-01 17:49:00,
2013-10-01 13:54:00,76.6,57.7,29.87,NW,315,3.5,3.5,52,0.00,FEW,,0.00,WeatherDisplay:10.37,2013-10-01 17:54:00,
2013-10-01 13:59:00,76.6,57.7,29.87,WNW,292,2.5,2.5,52,0.00,FEW,,0.00,WeatherDisplay:10.37,2013-10-01 17:59:00,
2013-10-01 14:04:00,76.6,58.2,29.87,West,270,3.5,3.5,53,0.00,FEW,,0.00,WeatherDisplay:10.37,2013-10-01 18:04:00,
2013-10-01 14:10:00,76.8,57.9,29.86,WNW,292,4.6,4.6,52,0.00,FEW,,0.00,WeatherDisplay:10.37,2013-10-01 18:10:00,
2013-10-01 14:15:00,76.8,58.4,29.86,WNW,292,2.3,2.3,53,0.00,FEW,,0.00,WeatherDisplay:10.37,2013-10-01 18:15:00,
2013-10-01 14:20:00,76.6,58.7,29.86,SW,225,1.3,1.9,54,0.00,FEW,,0.00,WeatherDisplay:10.37,2013-10-01 18:20:00,
2013-10-01 14:25:00,77.9,59.9,29.86,South,180,3.5,3.5,54,0.00,FEW,,0.00,WeatherDisplay:10.37,2013-10-01 18:25:00,
2013-10-01 14:30:00,79.9,61.2,29.85,South,180,5.8,5.8,53,0.00,FEW,,0.00,WeatherDisplay:10.37,2013-10-01 18:30:00,
2013-10-01 14:35:00,80.6,60.2,29.85,WSW,248,4.6,4.6,50,0.00,FEW,,0.00,WeatherDisplay:10.37,2013-10-01 18:35:00,
2013-10-01 14:40:00,81.3,60.9,29.85,South,180,1.2,1.9,50,0.00,FEW,,0.00,WeatherDisplay:10.37,2013-10-01 18:40:00,
2013-10-01 14:45:00,82.4,60.7,29.85,WNW,292,3.5,3.5,48,0.00,FEW,,0.00,WeatherDisplay:10.37,2013-10-01 18:45:00,
2013-10-01 14:50:00,81.5,59.3,29.85,NNW,338,4.6,4.6,47,0.00,FEW,,0.00,WeatherDisplay:10.37,2013-10-01 18:50:00,
2013-10-01 14:55:00,80.8,59.8,29.85,West,270,1.4,1.5,49,0.00,FEW,,0.00,WeatherDisplay:10.37,2013-10-01 18:55:00,
2013-10-01 15:00:00,80.6,59.7,29.85,SW,225,3.5,3.5,49,0.00,FEW,,0.00,WeatherDisplay:10.37,2013-10-01 19:00:00,
2013-10-01 15:05:00,80.8,59.8,29.85,West,270,3.5,3.5,49,0.00,FEW,,0.00,WeatherDisplay:10.37,2013-10-01 19:05:00,
2013-10-01 15:10:00,79.9,59.6,29.84,SW,225,2.3,2.3,50,0.00,FEW,,0.00,WeatherDisplay:10.37,2013-10-01 19:10:00,
2013-10-01 15:15:00,79.7,59.4,29.84,NW,315,4.6,4.6,50,0.00,FEW,,0.00,WeatherDisplay:10.37,2013-10-01 19:15:00,
2013-10-01 15:20:00,79.5,59.2,29.84,WSW,248,4.6,4.6,50,0.00,FEW,,0.00,WeatherDisplay:10.37,2013-10-01 19:20:00,
2013-10-01 15:25:00,79.3,58.5,29.84,NW,315,4.6,4.6,49,0.00,FEW,,0.00,WeatherDisplay:10.37,2013-10-01 19:25:00,
2013-10-01 15:30:00,78.6,57.9,29.84,NW,315,4.6,4.6,49,0.00,FEW,,0.00,WeatherDisplay:10.37,2013-10-01 19:30:00,
2013-10-01 15:35:00,78.3,58.1,29.84,NW,315,1.2,3.2,50,0.00,FEW,,0.00,WeatherDisplay:10.37,2013-10-01 19:35:00,
2013-10-01 15:40:00,77.5,57.4,29.84,NW,315,5.8,5.8,50,0.00,FEW,,0.00,WeatherDisplay:10.37,2013-10-01 19:40:00,
2013-10-01 15:45:00,77.2,58.2,29.84,WNW,292,5.8,5.8,52,0.00,FEW,,0.00,WeatherDisplay:10.37,2013-10-01 19:45:00,
2013-10-01 15:51:00,76.8,57.9,29.84,NW,315,4.6,4.6,52,0.00,FEW,,0.00,WeatherDisplay:10.37,2013-10-01 19:51:00,
2013-10-01 15:56:00,76.6,58.7,29.84,West,270,0.0,2.2,54,0.00,FEW,,0.00,WeatherDisplay:10.37,2013-10-01 19:56:00,
2013-10-01 16:01:00,76.6,58.2,29.84,WNW,292,0.0,1.5,53,0.00,FEW,,0.00,WeatherDisplay:10.37,2013-10-01 20:01:00,
2013-10-01 16:06:00,77.0,59.6,29.84,West,270,5.8,5.8,55,0.00,FEW,,0.00,WeatherDisplay:10.37,2013-10-01 20:06:00,
2013-10-01 16:11:00,76.8,57.9,29.84,NNW,338,3.5,3.5,52,0.00,FEW,,0.00,WeatherDisplay:10.37,2013-10-01 20:11:00,
2013-10-01 16:16:00,77.2,58.7,29.84,NNW,338,6.9,6.9,53,0.00,FEW,,0.00,WeatherDisplay:10.37,2013-10-01 20:16:00,
2013-10-01 16:21:00,76.5,57.5,29.84,NW,315,3.5,3.5,52,0.00,FEW,,0.00,WeatherDisplay:10.37,2013-10-01 20:21:00,
2013-10-01 16:26:00,76.1,58.2,29.84,North,0,2.3,2.7,54,0.00,FEW,,0.00,WeatherDisplay:10.37,2013-10-01 20:26:00,
2013-10-01 16:31:00,75.9,59.6,29.84,SW,225,1.2,1.9,57,0.00,FEW,,0.00,WeatherDisplay:10.37,2013-10-01 20:31:00,
2013-10-01 16:37:00,76.1,59.3,29.84,NW,315,3.5,3.5,56,0.00,FEW,,0.00,WeatherDisplay:10.37,2013-10-01 20:37:00,
2013-10-01 16:42:00,76.1,59.3,29.84,West,270,1.2,2.2,56,0.00,FEW,,0.00,WeatherDisplay:10.37,2013-10-01 20:42:00,
2013-10-01 16:47:00,75.9,58.6,29.83,NW,315,2.3,2.3,55,0.00,FEW,,0.00,WeatherDisplay:10.37,2013-10-01 20:47:00,
2013-10-01 16:52:00,75.7,58.9,29.83,NW,315,3.5,3.5,56,0.00,FEW,,0.00,WeatherDisplay:10.37,2013-10-01 20:52:00,
2013-10-01 16:57:00,75.6,58.3,29.83,NW,315,2.3,2.3,55,0.00,FEW,,0.00,WeatherDisplay:10.37,2013-10-01 20:57:00,
2013-10-01 17:02:00,75.7,59.4,29.83,WSW,248,0.0,1.4,57,0.00,FEW,,0.00,WeatherDisplay:10.37,2013-10-01 21:02:00,
2013-10-01 17:07:00,75.4,59.1,29.84,West,270,3.5,3.5,57,0.00,FEW,,0.00,WeatherDisplay:10.37,2013-10-01 21:07:00,
2013-10-01 17:12:00,75.4,59.1,29.84,NW,315,3.5,3.5,57,0.00,FEW,,0.00,WeatherDisplay:10.37,2013-10-01 21:12:00,
2013-10-01 17:17:00,75.2,58.4,29.84,WNW,292,1.2,1.3,56,0.00,FEW,,0.00,WeatherDisplay:10.37,2013-10-01 21:17:00,
2013-10-01 17:22:00,75.0,58.3,29.84,West,270,2.3,2.3,56,0.00,FEW,,0.00,WeatherDisplay:10.37,2013-10-01 21:22:00,
2013-10-01 17:27:00,75.0,58.8,29.84,NW,315,0.0,0.4,57,0.00,FEW,,0.00,WeatherDisplay:10.37,2013-10-01 21:27:00,
2013-10-01 17:32:00,74.8,58.6,29.84,NW,315,1.2,1.2,57,0.00,FEW,,0.00,WeatherDisplay:10.37,2013-10-01 21:32:00,
2013-10-01 17:37:00,74.8,58.6,29.84,NW,315,0.0,0.3,57,0.00,FEW,,0.00,WeatherDisplay:10.37,2013-10-01 21:37:00,
2013-10-01 17:42:00,75.0,58.8,29.84,NW,315,0.0,0.0,57,0.00,FEW,,0.00,WeatherDisplay:10.37,2013-10-01 21:42:00,
2013-10-01 17:47:00,74.8,58.1,29.83,NW,315,0.0,0.0,56,0.00,FEW,,0.00,WeatherDisplay:10.37,2013-10-01 21:47:00,
2013-10-01 17:52:00,74.8,58.6,29.83,NW,315,0.0,0.0,57,0.00,FEW,,0.00,WeatherDisplay:10.37,2013-10-01 21:52:00,
2013-10-01 17:57:00,74.8,58.6,29.83,WNW,292,0.0,0.1,57,0.00,FEW,,0.00,WeatherDisplay:10.37,2013-10-01 21:57:00,
2013-10-01 18:02:00,75.0,59.7,29.83,WSW,248,1.2,1.2,59,0.00,FEW,,0.00,WeatherDisplay:10.37,2013-10-01 22:02:00,
2013-10-01 18:07:00,75.0,59.2,29.84,West,270,0.0,0.3,58,0.00,FEW,,0.00,WeatherDisplay:10.37,2013-10-01 22:07:00,
2013-10-01 18:12:00,74.8,59.5,29.84,West,270,0.0,0.0,59,0.00,FEW,,0.00,WeatherDisplay:10.37,2013-10-01 22:12:00,
2013-10-01 18:17:00,75.0,60.7,29.84,West,270,0.0,0.0,61,0.00,FEW,,0.00,WeatherDisplay:10.37,2013-10-01 22:17:00,
2013-10-01 18:22:00,75.0,61.1,29.84,West,270,0.0,0.0,62,0.00,FEW,,0.00,WeatherDisplay:10.37,2013-10-01 22:22:00,
2013-10-01 18:27:00,75.0,61.1,29.84,West,270,0.0,0.0,62,0.00,FEW,,0.00,WeatherDisplay:10.37,2013-10-01 22:27:00,
2013-10-01 18:32:00,75.0,61.6,29.84,West,270,0.0,0.0,63,0.00,FEW,,0.00,WeatherDisplay:10.37,2013-10-01 22:32:00,
2013-10-01 18:38:00,74.8,61.4,29.84,SW,225,0.0,0.0,63,0.00,FEW,,0.00,WeatherDisplay:10.37,2013-10-01 22:38:00,
2013-10-01 18:43:00,74.7,61.2,29.84,West,270,1.2,0.0,63,0.00,FEW,,0.00,WeatherDisplay:10.37,2013-10-01 22:43:00,
2013-10-01 18:48:00,74.5,61.1,29.84,West,270,1.3,1.3,63,0.00,FEW,,0.00,WeatherDisplay:10.37,2013-10-01 22:48:00,
2013-10-01 18:53:00,74.7,61.2,29.84,WSW,248,0.0,0.1,63,0.00,FEW,,0.00,WeatherDisplay:10.37,2013-10-01 22:53:00,
2013-10-01 18:58:00,74.3,60.9,29.84,WNW,292,0.0,0.3,63,0.00,FEW,,0.00,WeatherDisplay:10.37,2013-10-01 22:58:00,
2013-10-01 19:04:00,74.3,60.9,29.84,WSW,248,1.2,1.2,63,0.00,FEW,,0.00,WeatherDisplay:10.37,2013-10-01 23:04:00,
2013-10-01 19:09:00,73.9,60.5,29.84,West,270,1.2,1.2,63,0.00,FEW,,0.00,WeatherDisplay:10.37,2013-10-01 23:09:00,
2013-10-01 19:14:00,73.8,60.4,29.84,WNW,292,0.0,0.1,63,0.00,FEW,,0.00,WeatherDisplay:10.37,2013-10-01 23:14:00,
2013-10-01 19:19:00,73.6,60.6,29.84,West,270,0.0,0.0,64,0.00,FEW,,0.00,WeatherDisplay:10.37,2013-10-01 23:19:00,
2013-10-01 19:20:00,73.8,60.8,29.84,WNW,292,0.0,0.0,64,0.00,FEW,,0.00,WeatherDisplay:10.37,2013-10-01 23:20:00,
2013-10-01 19:25:00,73.2,60.7,29.84,WNW,292,0.0,0.0,65,0.00,FEW,,0.00,WeatherDisplay:10.37,2013-10-01 23:25:00,
2013-10-01 19:30:00,73.0,60.1,29.85,West,270,0.0,0.1,64,0.00,FEW,,0.00,WeatherDisplay:10.37,2013-10-01 23:30:00,
2013-10-01 19:35:00,73.0,60.1,29.85,West,270,1.2,1.2,64,0.00,FEW,,0.00,WeatherDisplay:10.37,2013-10-01 23:35:00,
2013-10-01 19:40:00,72.9,60.4,29.85,West,270,1.2,1.2,65,0.00,FEW,,0.00,WeatherDisplay:10.37,2013-10-01 23:40:00,
2013-10-01 19:45:00,72.9,60.0,29.85,NNW,338,0.0,0.4,64,0.00,FEW,,0.00,WeatherDisplay:10.37,2013-10-01 23:45:00,
2013-10-01 19:50:00,72.5,60.1,29.86,WNW,292,0.0,0.4,65,0.00,FEW,,0.00,WeatherDisplay:10.37,2013-10-01 23:50:00,
2013-10-01 19:55:00,72.3,59.9,29.86,West,270,0.0,0.1,65,0.00,FEW,,0.00,WeatherDisplay:10.37,2013-10-01 23:55:00,
2013-10-01 20:00:00,72.1,60.2,29.86,West,270,0.0,0.1,66,0.00,FEW,,0.00,WeatherDisplay:10.37,2013-10-02 00:00:00,
2013-10-01 20:05:00,72.0,60.0,29.86,SW,225,0.0,0.0,66,0.00,FEW,,0.00,WeatherDisplay:10.37,2013-10-02 00:05:00,
2013-10-01 20:10:00,71.8,59.8,29.86,SW,225,0.0,0.0,66,0.00,FEW,,0.00,WeatherDisplay:10.37,2013-10-02 00:10:00,
2013-10-01 20:15:00,71.6,60.1,29.86,SW,225,0.0,0.0,67,0.00,FEW,,0.00,WeatherDisplay:10.37,2013-10-02 00:15:00,
2013-10-01 20:16:00,71.4,59.9,29.86,SW,225,0.0,0.0,67,0.00,FEW,,0.00,WeatherDisplay:10.37,2013-10-02 00:16:00,
2013-10-01 20:21:00,71.4,59.9,29.86,WSW,248,0.0,0.0,67,0.00,FEW,,0.00,WeatherDisplay:10.37,2013-10-02 00:21:00,
2013-10-01 20:26:00,71.1,60.0,29.87,SSW,202,0.0,0.0,68,0.00,FEW,,0.00,WeatherDisplay:10.37,2013-10-02 00:26:00,
2013-10-01 20:31:00,70.9,59.8,29.87,South,180,2.0,2.0,68,0.00,FEW,,0.00,WeatherDisplay:10.37,2013-10-02 00:31:00,
2013-10-01 20:36:00,70.7,59.6,29.87,SSW,202,1.4,1.4,68,0.00,FEW,,0.00,WeatherDisplay:10.37,2013-10-02 00:36:00,
2013-10-01 20:41:00,70.7,59.6,29.87,WSW,248,0.0,0.8,68,0.00,FEW,,0.00,WeatherDisplay:10.37,2013-10-02 00:41:00,
2013-10-01 20:46:00,70.7,59.6,29.88,West,270,0.0,0.1,68,0.00,FEW,,0.00,WeatherDisplay:10.37,2013-10-02 00:46:00,
2013-10-01 20:51:00,70.2,59.1,29.88,West,270,0.0,0.0,68,0.00,FEW,,0.00,WeatherDisplay:10.37,2013-10-02 00:51:00,
2013-10-01 20:56:00,69.8,59.2,29.88,WSW,248,1.3,1.3,69,0.00,FEW,,0.00,WeatherDisplay:10.37,2013-10-02 00:56:00,
2013-10-01 21:01:00,70.0,59.3,29.88,SW,225,0.0,0.3,69,0.00,FEW,,0.00,WeatherDisplay:10.37,2013-10-02 01:01:00,
2013-10-01 21:06:00,69.6,59.0,29.88,WNW,292,0.0,0.1,69,0.00,FEW,,0.00,WeatherDisplay:10.37,2013-10-02 01:06:00,
2013-10-01 21:11:00,69.4,58.8,29.88,SW,225,0.0,0.0,69,0.00,FEW,,0.00,WeatherDisplay:10.37,2013-10-02 01:11:00,
2013-10-01 21:16:00,69.4,59.2,29.88,South,180,0.0,0.0,70,0.00,FEW,,0.00,WeatherDisplay:10.37,2013-10-02 01:16:00,
2013-10-01 21:21:00,69.1,58.9,29.88,SSE,158,0.0,0.0,70,0.00,FEW,,0.00,WeatherDisplay:10.37,2013-10-02 01:21:00,
2013-10-01 21:26:00,68.9,58.7,29.87,South,180,0.0,0.0,70,0.00,FEW,,0.00,WeatherDisplay:10.37,2013-10-02 01:26:00,
2013-10-01 21:32:00,68.7,58.5,29.87,South,180,0.0,0.0,70,0.00,FEW,,0.00,WeatherDisplay:10.37,2013-10-02 01:32:00,
2013-10-01 21:37:00,68.5,58.4,29.87,SW,225,0.0,0.0,70,0.00,FEW,,0.00,WeatherDisplay:10.37,2013-10-02 01:37:00,
2013-10-01 21:42:00,68.4,58.6,29.87,SW,225,0.0,0.0,71,0.00,FEW,,0.00,WeatherDisplay:10.37,2013-10-02 01:42:00,
2013-10-01 21:47:00,68.5,58.8,29.88,SW,225,0.0,0.0,71,0.00,FEW,,0.00,WeatherDisplay:10.37,2013-10-02 01:47:00,
2013-10-01 21:52:00,68.0,58.2,29.88,SW,225,0.0,0.0,71,0.00,FEW,,0.00,WeatherDisplay:10.37,2013-10-02 01:52:00,
2013-10-01 21:57:00,68.0,58.2,29.88,NW,315,0.0,0.0,71,0.00,FEW,,0.00,WeatherDisplay:10.37,2013-10-02 01:57:00,
2013-10-01 22:02:00,67.8,58.5,29.88,West,270,0.0,0.0,72,0.00,FEW,,0.00,WeatherDisplay:10.37,2013-10-02 02:02:00,
2013-10-01 22:07:00,67.5,58.1,29.89,SW,225,0.0,0.0,72,0.00,FEW,,0.00,WeatherDisplay:10.37,2013-10-02 02:07:00,
2013-10-01 22:12:00,67.5,58.5,29.89,SSW,202,1.2,1.2,73,0.00,FEW,,0.00,WeatherDisplay:10.37,2013-10-02 02:12:00,
2013-10-01 22:17:00,67.3,58.3,29.89,SW,225,0.0,0.1,73,0.00,FEW,,0.00,WeatherDisplay:10.37,2013-10-02 02:17:00,
2013-10-01 22:22:00,67.1,58.2,29.89,SW,225,0.0,0.1,73,0.00,FEW,,0.00,WeatherDisplay:10.37,2013-10-02 02:22:00,
2013-10-01 22:28:00,67.1,58.2,29.88,SW,225,0.0,0.0,73,0.00,FEW,,0.00,WeatherDisplay:10.37,2013-10-02 02:28:00,
2013-10-01 22:33:00,66.7,57.8,29.88,SW,225,0.0,0.0,73,0.00,FEW,,0.00,WeatherDisplay:10.37,2013-10-02 02:33:00,
2013-10-01 22:38:00,66.7,58.2,29.88,SW,225,0.0,0.0,74,0.00,FEW,,0.00,WeatherDisplay:10.37,2013-10-02 02:38:00,
2013-10-01 22:43:00,66.4,57.8,29.88,SW,225,0.0,0.0,74,0.00,FEW,,0.00,WeatherDisplay:10.37,2013-10-02 02:43:00,
2013-10-01 22:48:00,66.2,57.7,29.88,SW,225,0.0,0.0,74,0.00,FEW,,0.00,WeatherDisplay:10.37,2013-10-02 02:48:00,
2013-10-01 22:53:00,66.0,57.5,29.88,SSW,202,0.0,0.0,74,0.00,FEW,,0.00,WeatherDisplay:10.37,2013-10-02 02:53:00,
2013-10-01 22:58:00,66.0,57.5,29.88,South,180,2.3,2.3,74,0.00,FEW,,0.00,WeatherDisplay:10.37,2013-10-02 02:58:00,
2013-10-01 23:03:00,65.8,57.7,29.88,SSW,202,2.3,2.3,75,0.00,FEW,,0.00,WeatherDisplay:10.37,2013-10-02 03:03:00,
2013-10-01 23:08:00,65.8,57.7,29.89,SW,225,0.0,1.0,75,0.00,FEW,,0.00,WeatherDisplay:10.37,2013-10-02 03:08:00,
2013-10-01 23:13:00,65.7,57.5,29.89,SSW,202,1.2,1.2,75,0.00,FEW,,0.00,WeatherDisplay:10.37,2013-10-02 03:13:00,
2013-10-01 23:18:00,65.3,57.2,29.89,SSW,202,1.2,1.2,75,0.00,FEW,,0.00,WeatherDisplay:10.37,2013-10-02 03:18:00,
2013-10-01 23:23:00,65.1,57.0,29.89,SSW,202,1.2,1.3,75,0.00,FEW,,0.00,WeatherDisplay:10.37,2013-10-02 03:23:00,
2013-10-01 23:28:00,65.1,57.0,29.89,West,270,0.0,0.8,75,0.00,FEW,,0.00,WeatherDisplay:10.37,2013-10-02 03:28:00,
2013-10-01 23:33:00,65.1,57.4,29.89,West,270,0.0,0.1,76,0.00,FEW,,0.00,WeatherDisplay:10.37,2013-10-02 03:33:00,
2013-10-01 23:38:00,64.9,57.2,29.89,SSW,202,0.0,0.0,76,0.00,FEW,,0.00,WeatherDisplay:10.37,2013-10-02 03:38:00,
2013-10-01 23:43:00,64.9,57.2,29.89,South,180,0.0,0.0,76,0.00,FEW,,0.00,WeatherDisplay:10.37,2013-10-02 03:43:00,
2013-10-01 23:48:00,64.6,56.8,29.89,South,180,0.0,0.0,76,0.00,FEW,,0.00,WeatherDisplay:10.37,2013-10-02 03:48:00,
2013-10-01 23:53:00,64.4,57.0,29.89,South,180,0.0,0.0,77,0.00,FEW,,0.00,WeatherDisplay:10.37,2013-10-02 03:53:00,
2013-10-01 23:58:00,64.2,56.9,29.89,SW,225,3.5,3.5,77,0.00,FEW,,0.00,WeatherDisplay:10.37,2013-10-02 03:58:00,